Location: Conflandey
(47.7287°N, 6.0456°E)
Time: 19:39:09
(UTC+00:00)

SL-16 R/B - Pass Details

Date: 24 October 2021
Orbit: 842 x 846 km, 71.0° (Epoch: 05 December)

Event Time Altitude Azimuth Distance (km) Brightness Sun altitude
Rises 17:51:29 0° 204° (SSW) 3,387 5.7 -14.1°
Reaches altitude 10° 17:53:55 10° 203° (SSW) 2,457 4.9 -14.5°
Maximum altitude 17:59:34 86° 117° (ESE) 853 2.1 -15.5°
Drops below altitude 10° 18:05:16 10° 28° (NNE) 2,476 4.4 -16.5°
Enters shadow 18:07:43 - 28° (NNE) 3,412 5.1 -16.9°
